Regional Weather Roundup
Issued by NWS

Home | Current Version | Previous Version | Graphics & Text | Print | Product List | Glossary On
Versions: 1 2 3 4 5 6 7 8 9 10 11 12 13 14 15 16 17 18 19 20 21 22 23 24 25 26 27 28 29 30 31 32 33 34 35 36 37 38 39 40 41 42 43 44 45 46 47 48 49 50
000
ASUS45 KTFX 010410
RWRMT
MONTANA REGIONAL WEATHER ROUNDUP
NATIONAL WEATHER SERVICE GREAT FALLS MT
1000 PM MDT FRI JUL 31 2015

NOTE: "FAIR" INDICATES FEW OR NO CLOUDS BELOW 12000 FEET WITH NO
SIGNIFICANT WEATHER AND/OR OBSTRUCTIONS TO VISIBILITY.

MTZ001>007-043-010500-
WEST OF THE DIVIDE

CITY           SKY/WX    TMP DP  RH WIND       PRES   REMARKS
KALISPELL      CLEAR     69  42  37 CALM      30.01R
MISSOULA       CLEAR     74  33  22 N7        30.07R
BUTTE          CLEAR     66  37  34 S9        30.26R
MULLAN PASS    CLEAR     71  22  15 VRB5      30.27S
DEER LODGE       N/A     68  32  26 S7        30.22R
EUREKA           N/A     81  34  18 E7        29.98R
HAMILTON         N/A     66  46  48 E3        30.11R
LIBBY            N/A     77  34  20 CALM      29.99S
$$

MTZ008-052>055-010500-
SOUTHWEST MONTANA

CITY           SKY/WX    TMP DP  RH WIND       PRES   REMARKS
BOZEMAN        CLEAR     60  51  72 S7        30.17R
DILLON         CLEAR     63  42  46 E5        30.21R
W YELLOWSTONE  CLEAR     55  43  62 CALM      30.35R
$$

MTZ009-010-012-014-046-048-049-054-010500-
EAST SLOPES AND CENTRAL MONTANA

CITY           SKY/WX    TMP DP  RH WIND       PRES   REMARKS
CUT BANK       CLEAR     73  31  21 W6        30.06R
GREAT FALLS    CLEAR     74  35  24 SE6       30.06S
MALMSTROM AFB  CLEAR     69  38  32 S8        30.05S
HELENA         CLEAR     79  30  16 SW9       30.11R
$$

MTZ011-013-016-021-045-047-050-051-010500-
NORTH CENTRAL MONTANA

CITY           SKY/WX    TMP DP  RH WIND       PRES   REMARKS
HAVRE          CLEAR     68  48  48 SE3       30.00R
LEWISTOWN      CLEAR     66  46  48 S9        30.14R
CHINOOK          N/A     70  46  43 CALM      30.00R
FORT BENTON      N/A     79  39  24 S8        30.02R
$$

MTZ017>020-022>027-061-062-010500-
NORTHEAST MONTANA

CITY           SKY/WX    TMP DP  RH WIND       PRES   REMARKS
GLASGOW        CLEAR     75  47  36 N5        29.99R
JORDAN           N/A     75  42  30 N12       30.02R
SIDNEY         CLEAR    N/A N/A N/A N5        30.00R
WOLF POINT     CLEAR     73  48  41 NE6       29.99R
PLENTYWOOD       N/A     66  52  59 NE8       30.03S
POPLAR           N/A     75  48  38 E9        29.99S
SCOBEY           N/A     66  47  50 NE8       30.02R
$$

MTZ028>42-056>058-010500-
SOUTHCENTRAL AND SOUTHEAST MONTANA

CITY           SKY/WX    TMP DP  RH WIND       PRES   REMARKS
BAKER          CLEAR     71  46  40 SE13      30.05R
BILLINGS       PTCLDY    78  35  21 N6        30.11R
LIVINGSTON     CLEAR     67  36  31 W6        30.18R
MILES CITY     CLEAR     80  40  23 N9        30.00R
FORSYTH          N/A     81  39  22 CALM      30.02R
$$

REGIONAL REPORTS...DAKOTAS

CITY           SKY/WX    TMP DP  RH WIND       PRES   REMARKS
WILLISTON      PTCLDY    73  49  42 SE3       30.02R
MINOT          CLEAR     62  52  69 CALM      30.01S
DICKINSON      CLEAR     64  51  62 E9        30.04R
BEACH          FAIR      64  50  59 SE6       30.04S
CROSBY         FAIR      57  57 100 NE5       30.04R
BISMARCK       CLEAR     68  56  65 NE6       30.03S
GRAND FORKS    CLEAR     59  53  80 W7        29.97S
FARGO          CLEAR     64  57  78 CALM      29.99R
BUFFALO SD       N/A     70  48  45 SE10      30.01S
RAPID CITY     CLEAR     68  53  58 S3        30.13R
$$

REGIONAL REPORTS...WYOMING/IDAHO/WASHINGTON

CITY           SKY/WX    TMP DP  RH WIND       PRES   REMARKS
GILLETTE       CLEAR     77  48  35 SE15      30.14R
SHERIDAN       CLEAR     65  48  54 S9        30.11R
BUFFALO WY     PTCLDY    72  39  30 W9        30.20R
CODY           PTCLDY    75  28  17 SW5       30.22R
YELLOWSTONE LA   N/A     56  35  45 NW5       30.46R
IDAHO FALLS    CLEAR     67  48  50 CALM      30.18R
SALMON         CLEAR     73  36  25 SE6       30.12R
BOISE          CLEAR     87  42  20 CALM      30.01R
SPOKANE        PTCLDY    89  24   9 SW9       29.97S
$$

REGIONAL REPORTS...ALBERTA

CITY           SKY/WX    TMP DP  RH WIND       PRES   REMARKS
EDMONTON       CLEAR     64  54  68 N6        29.97R
CALGARY        PTCLDY    79  32  18 NW3       30.00R
LETHBRIDGE     PTCLDY    64  48  55 SW10      29.97R
MEDICINE HAT   CLEAR     75  41  29 S5        29.94S
WATERTON GATE    N/A     59  45  58 CALM        N/A
CARDSTON         N/A     73  34  23 SW9         N/A
MILK RIVER       N/A     68  41  37 S5          N/A
ONEFOUR          N/A     72  39  30 SE9         N/A
$$

REGIONAL REPORTS...SASKATCHEWAN

CITY           SKY/WX    TMP DP  RH WIND       PRES   REMARKS
SWIFT CURRENT  CLEAR     61  55  82 SE9       30.03S
REGINA         PTCLDY    63  54  72 CALM      30.04R
SASKATOON      PTCLDY    66  52  59 S6        29.99F
CYPRESS HILLS    N/A     66  34  30 SW2         N/A
VAL MARIE        N/A     59  54  82 NE8         N/A
ROCKGLEN         N/A     63  54  72 NE2         N/A
ASSINIBOIA       N/A     66  61  82 W5          N/A
$$


USA.gov is the U.S. government's official web portal to all federal, state and local government web resources and services.